Date String (YYYY-MM-DD hh:mm:ss) UTC,Instrument flags,Ambient pressure (hPa),Sample flow (lpm),Bypass flow (lpm),Sample temperature (°C),Ambient temperature (°C),ASC tube jacket temperature (°C),LED temperature (°C),Box temperature (°C),Sample RH (%),Span deviation,Mass concentration (μg/m³),Mass concentration (μg/m³),Mass concentration (μg/m³)
DateTimeUTC,F1_M11,P_M11,Q1_M11,Q2_M11,T1_M11,T2_M11,T3_M11,T4_M11,T5_M11,U1_M11,ZSPAN_M11,X2_M11,X0_M11,X1_M11
2023-03-11 23:00:00,,0816.5,5.00,0.00,22.8,21.4,00.0,31.6,24.7,07.4,0000.0,0001.18,0002.59,0000.70
2023-03-11 23:01:00,,0816.6,5.01,0.00,22.8,21.4,00.0,31.6,24.6,07.5,0000.0,0001.24,0002.71,0000.71
2023-03-11 23:02:00,,0816.7,5.00,0.00,22.8,21.4,00.0,31.6,24.6,07.6,0000.0,0001.31,0002.96,0000.72
2023-03-11 23:03:00,,0816.7,5.00,0.00,22.8,21.4,00.0,31.6,24.6,07.8,0000.0,0001.38,0003.11,0000.72
2023-03-11 23:04:00,,0816.6,5.00,0.00,22.8,21.4,00.0,31.6,24.6,08.0,0000.0,0001.40,0003.16,0000.73
2023-03-11 23:05:00,,0816.7,4.98,0.00,22.8,21.3,00.0,31.6,24.6,07.9,0000.0,0001.45,0003.27,0000.73
2023-03-11 23:06:00,,0816.8,4.99,0.00,22.8,21.3,00.0,31.6,24.6,07.9,0000.0,0001.43,0003.18,0000.74
2023-03-11 23:07:00,,0816.8,5.00,0.00,22.8,21.3,00.0,31.6,24.7,08.0,0000.0,0001.40,0003.01,0000.74
2023-03-11 23:08:00,,0816.8,5.01,0.00,22.8,21.3,00.0,31.6,24.7,07.9,0000.0,0001.38,0002.92,0000.74
2023-03-11 23:09:00,,0816.9,5.01,0.00,22.8,21.4,00.0,31.6,24.6,07.9,0000.0,0001.40,0002.88,0000.75
2023-03-11 23:10:00,,0816.9,5.01,0.00,22.8,21.4,00.0,31.6,24.7,08.0,0000.0,0001.41,0002.82,0000.75
2023-03-11 23:11:00,,0816.9,4.99,0.00,22.8,21.4,00.0,31.6,24.7,08.0,0000.0,0001.45,0002.94,0000.76
2023-03-11 23:12:00,,0817.1,5.00,0.00,22.8,21.5,00.0,31.6,24.7,08.0,0000.0,0001.43,0002.85,0000.76
2023-03-11 23:13:00,,0816.8,5.00,0.00,22.8,21.5,00.0,31.6,24.7,08.0,0000.0,0001.37,0002.61,0000.74
2023-03-11 23:14:00,,0816.9,4.99,0.00,22.8,21.6,00.0,31.6,24.7,07.9,0000.0,0001.30,0002.50,0000.72
2023-03-11 23:15:00,,0816.8,4.99,0.00,22.9,21.6,00.0,31.6,24.7,07.8,0000.0,0001.27,0002.52,0000.71
2023-03-11 23:16:00,,0817.1,5.01,0.00,22.9,21.6,00.0,31.6,24.8,07.8,0000.0,0001.22,0002.41,0000.71
2023-03-11 23:17:00,,0816.9,5.00,0.00,22.9,21.6,00.0,31.6,24.7,07.7,0000.0,0001.19,0002.35,0000.69
2023-03-11 23:18:00,,0816.9,5.01,0.00,22.9,21.6,00.0,31.6,24.7,08.0,0000.0,0001.20,0002.38,0000.70
2023-03-11 23:19:00,,0816.9,5.01,0.00,22.9,21.6,00.0,31.6,24.7,08.2,0000.0,0001.22,0002.44,0000.70
2023-03-11 23:20:00,,0816.8,4.98,0.00,22.9,21.6,00.0,31.6,24.8,08.1,0000.0,0001.22,0002.46,0000.70
2023-03-11 23:21:00,,0816.8,4.96,0.00,22.9,21.6,00.0,31.6,24.7,08.4,0000.0,0001.21,0002.49,0000.70
2023-03-11 23:22:00,,0816.9,5.00,0.00,22.9,21.6,00.0,31.6,24.7,08.2,0000.0,0001.22,0002.54,0000.70
2023-03-11 23:23:00,,0816.8,5.01,0.00,22.9,21.6,00.0,31.6,24.8,08.1,0000.0,0001.23,0002.58,0000.70
2023-03-11 23:24:00,,0816.8,4.99,0.00,22.9,21.5,00.0,31.6,24.7,08.2,0000.0,0001.22,0002.53,0000.71
2023-03-11 23:25:00,,0816.8,4.99,0.00,22.9,21.5,00.0,31.6,24.7,08.3,0000.0,0001.29,0002.73,0000.73
2023-03-11 23:26:00,,0816.8,4.99,0.00,22.9,21.5,00.0,31.6,24.7,08.2,0000.0,0001.32,0002.76,0000.74
2023-03-11 23:27:00,,0816.9,4.99,0.00,22.9,21.4,00.0,31.6,24.7,08.2,0000.0,0001.36,0002.86,0000.74
2023-03-11 23:28:00,,0817.0,5.00,0.00,22.9,21.4,00.0,31.6,24.7,08.3,0000.0,0001.44,0003.06,0000.76
2023-03-11 23:29:00,,0816.9,5.01,0.00,22.9,21.4,00.0,31.6,24.7,08.5,0000.0,0001.52,0003.35,0000.76
2023-03-11 23:30:00,,0817.0,4.99,0.00,22.9,21.4,00.0,31.6,24.7,08.5,0000.0,0001.57,0003.50,0000.76
2023-03-11 23:31:00,,0817.0,4.97,0.00,22.9,21.4,00.0,31.6,24.7,08.6,0000.0,0001.58,0003.55,0000.77
2023-03-11 23:32:00,,0817.1,5.00,0.00,22.9,21.4,00.0,31.6,24.7,08.5,0000.0,0001.59,0003.63,0000.77
2023-03-11 23:33:00,,0817.1,5.00,0.00,22.9,21.4,00.0,31.6,24.7,08.6,0000.0,0001.53,0003.42,0000.77
2023-03-11 23:34:00,,0817.1,5.00,0.00,22.9,21.4,00.0,31.6,24.7,08.4,0000.0,0001.51,0003.37,0000.78
2023-03-11 23:35:00,,0817.1,4.99,0.00,22.9,21.4,00.0,31.6,24.7,08.5,0000.0,0001.53,0003.43,0000.79
2023-03-11 23:36:00,,0817.1,5.00,0.00,22.9,21.5,00.0,31.6,24.7,08.7,0000.0,0001.50,0003.24,0000.78
2023-03-11 23:37:00,,0817.1,5.01,0.00,22.9,21.5,00.0,31.6,24.7,08.7,0000.0,0001.52,0003.19,0000.79
2023-03-11 23:38:00,,0817.1,5.01,0.00,22.9,21.5,00.0,31.6,24.7,08.5,0000.0,0001.56,0003.30,0000.80
2023-03-11 23:39:00,,0817.0,4.99,0.00,22.9,21.5,00.0,31.6,24.7,08.6,0000.0,0001.56,0003.28,0000.81
2023-03-11 23:40:00,,0816.9,5.00,0.00,22.9,21.5,00.0,31.6,24.7,08.8,0000.0,0001.49,0003.37,0000.82
2023-03-11 23:41:00,,0816.9,5.01,0.00,22.9,21.5,00.0,31.6,24.7,08.5,0000.0,0001.53,0003.54,0000.83
2023-03-11 23:42:00,,0816.9,5.00,0.00,22.9,21.5,00.0,31.6,24.7,08.5,0000.0,0001.54,0004.37,0000.83
2023-03-11 23:43:00,,0816.8,5.00,0.00,22.9,21.5,00.0,31.6,24.7,08.5,0000.0,0001.51,0004.20,0000.84
2023-03-11 23:44:00,,0816.9,5.01,0.00,22.9,21.5,00.0,31.6,24.7,08.5,0000.0,0001.55,0004.36,0000.84
2023-03-11 23:45:00,,0817.1,5.01,0.00,22.9,21.5,00.0,31.6,24.7,08.6,0000.0,0001.56,0004.35,0000.86
2023-03-11 23:46:00,,0817.1,5.03,0.00,22.9,21.4,00.0,31.6,24.7,08.8,0000.0,0001.54,0004.25,0000.86
2023-03-11 23:47:00,,0817.0,5.01,0.00,22.9,21.4,00.0,31.6,24.7,08.9,0000.0,0001.57,0004.39,0000.87
2023-03-11 23:48:00,,0817.0,4.99,0.00,22.9,21.4,00.0,31.6,24.6,09.0,0000.0,0001.58,0004.47,0000.87
2023-03-11 23:49:00,,0817.0,5.00,0.00,22.9,21.4,00.0,31.6,24.7,09.0,0000.0,0001.57,0004.45,0000.86
2023-03-11 23:50:00,,0817.1,5.01,0.00,22.9,21.4,00.0,31.6,24.7,09.0,0000.0,0001.57,0004.45,0000.86
2023-03-11 23:51:00,,0817.0,5.02,0.00,22.9,21.4,00.0,31.6,24.7,09.1,0000.0,0001.58,0004.06,0000.86
2023-03-11 23:52:00,,0817.1,5.01,0.00,22.8,21.3,00.0,31.6,24.6,09.0,0000.0,0001.53,0003.80,0000.84
2023-03-11 23:53:00,,0817.1,5.01,0.00,22.8,21.3,00.0,31.6,24.6,08.9,0000.0,0001.55,0003.06,0000.84
2023-03-11 23:54:00,,0817.2,5.00,0.00,22.8,21.3,00.0,31.6,24.6,08.9,0000.0,0001.64,0003.25,0000.86
2023-03-11 23:55:00,,0817.2,5.01,0.00,22.8,21.3,00.0,31.6,24.6,08.9,0000.0,0001.68,0003.34,0000.86
2023-03-11 23:56:00,,0817.2,5.01,0.00,22.8,21.3,00.0,31.6,24.6,09.1,0000.0,0001.71,0003.49,0000.85
2023-03-11 23:57:00,,0817.3,5.01,0.00,22.8,21.3,00.0,31.6,24.6,08.8,0000.0,0001.76,0003.64,0000.85
2023-03-11 23:58:00,,0817.4,4.97,0.00,22.8,21.3,00.0,31.6,24.6,08.9,0000.0,0001.75,0003.54,0000.85
2023-03-11 23:59:00,,0817.5,4.99,0.00,22.8,21.3,00.0,31.6,24.6,09.3,0000.0,0001.69,0003.42,0000.85
